• In Deutschland
  • Länderverzeichnis
  • Für 7 Tage
  • Wassertemperatur
  • Satellitenkarten
  • Wetterkarte
  • Widgets
  • user-avatar
    Anmelden

    Stündliche Wetter Victoria

    Heute, 27 April, Donnerstag

    Zeit Temperatur Niederschläge Wind Luftdruck Luftfeuchtigkeit
    00:00 +7°C° 0 mm 2 m/S 752 mmHg 81%
    01:00 +7°C° 0 mm 2 m/S 752 mmHg 82%
    02:00 +7°C° 0 mm 2 m/S 753 mmHg 83%
    03:00 +7°C° 0 mm 2 m/S 753 mmHg 84%
    04:00 +8°C° 0 mm 1 m/S 753 mmHg 86%
    05:00 +7°C° 0 mm 1 m/S 753 mmHg 87%
    06:00 +7°C° 0 mm 1 m/S 754 mmHg 88%
    07:00 +7°C° 0 mm 1 m/S 754 mmHg 88%
    08:00 +8°C° 0 mm 2 m/S 754 mmHg 80%
    09:00 +10°C° 0 mm 2 m/S 754 mmHg 72%
    10:00 +12°C° 0 mm 3 m/S 755 mmHg 63%
    11:00 +12°C° 0 mm 3 m/S 754 mmHg 60%
    12:00 +13°C° 0 mm 3 m/S 754 mmHg 57%
    13:00 +14°C° 0 mm 3 m/S 754 mmHg 54%
    14:00 +14°C° 0 mm 3 m/S 754 mmHg 56%
    15:00 +13°C° 0 mm 3 m/S 754 mmHg 57%
    16:00 +14°C° 0 mm 2 m/S 754 mmHg 59%
    17:00 +13°C° 0 mm 2 m/S 754 mmHg 67%
    18:00 +11°C° 0 mm 1 m/S 755 mmHg 74%
    19:00 +10°C° 0 mm 1 m/S 755 mmHg 82%
    20:00 +9°C° 0 mm 1 m/S 755 mmHg 85%
    21:00 +9°C° 0 mm 1 m/S 755 mmHg 88%
    22:00 +8°C° 0 mm 1 m/S 756 mmHg 91%
    23:00 +8°C° 0 mm 1 m/S 756 mmHg 93%

    Morgen, 28 April, Freitag

    Zeit Temperatur Niederschläge Wind Luftdruck Luftfeuchtigkeit
    00:00 +7°C° 0 mm 1 m/S 756 mmHg 94%
    01:00 +7°C° 0 mm 1 m/S 756 mmHg 96%
    02:00 +7°C° 0 mm 1 m/S 756 mmHg 97%
    03:00 +7°C° 0 mm 1 m/S 756 mmHg 98%
    04:00 +7°C° 0 mm 1 m/S 755 mmHg 98%
    05:00 +6°C° 0 mm 0 m/S 756 mmHg 99%
    06:00 +6°C° 0 mm 0 m/S 756 mmHg 99%
    07:00 +5°C° 0 mm 0 m/S 756 mmHg 99%
    08:00 +8°C° 0 mm 0 m/S 756 mmHg 91%
    09:00 +12°C° 0 mm 1 m/S 756 mmHg 82%
    10:00 +14°C° 0 mm 1 m/S 757 mmHg 73%
    11:00 +15°C° 0 mm 1 m/S 756 mmHg 71%
    12:00 +16°C° 0 mm 1 m/S 756 mmHg 69%
    13:00 +18°C° 0 mm 1 m/S 756 mmHg 67%
    14:00 +18°C° 0 mm 1 m/S 755 mmHg 70%
    15:00 +18°C° 0 mm 1 m/S 755 mmHg 73%
    16:00 +16°C° 0 mm 1 m/S 755 mmHg 77%
    17:00 +15°C° 0 mm 1 m/S 755 mmHg 81%
    18:00 +14°C° 0 mm 1 m/S 755 mmHg 85%
    19:00 +14°C° 0 mm 1 m/S 755 mmHg 89%
    20:00 +13°C° 0 mm 1 m/S 755 mmHg 91%
    21:00 +13°C° 0 mm 1 m/S 756 mmHg 92%
    22:00 +13°C° 0 mm 1 m/S 756 mmHg 93%
    23:00 +13°C° 0 mm 1 m/S 756 mmHg 95%

    übermorgen, 29 April, Samstag

    Zeit Temperatur Niederschläge Wind Luftdruck Luftfeuchtigkeit
    00:00 +12°C° 0 mm 1 m/S 755 mmHg 96%
    01:00 +11°C° 0 mm 1 m/S 755 mmHg 98%
    02:00 +12°C° 0 mm 1 m/S 755 mmHg 97%
    03:00 +12°C° 0 mm 1 m/S 755 mmHg 97%
    04:00 +12°C° 0 mm 1 m/S 755 mmHg 96%
    05:00 +11°C° 0 mm 1 m/S 755 mmHg 97%
    06:00 +11°C° 0 mm 1 m/S 755 mmHg 98%
    07:00 +11°C° 0 mm 1 m/S 755 mmHg 98%
    08:00 +12°C° 0 mm 1 m/S 755 mmHg 92%
    09:00 +14°C° 0 mm 1 m/S 755 mmHg 86%
    10:00 +16°C° 0 mm 1 m/S 755 mmHg 79%
    11:00 +18°C° 0 mm 1 m/S 755 mmHg 76%
    12:00 +18°C° 0 mm 1 m/S 755 mmHg 72%
    13:00 +19°C° 0 mm 1 m/S 755 mmHg 69%
    14:00 +19°C° 0 mm 1 m/S 755 mmHg 68%
    15:00 +19°C° 0 mm 1 m/S 754 mmHg 68%
    16:00 +19°C° 0 mm 1 m/S 754 mmHg 68%
    17:00 +18°C° 0 mm 1 m/S 755 mmHg 75%
    18:00 +15°C° 0 mm 1 m/S 755 mmHg 81%
    19:00 +14°C° 0 mm 1 m/S 755 mmHg 88%
    20:00 +13°C° 0 mm 1 m/S 755 mmHg 90%
    21:00 +13°C° 0 mm 1 m/S 756 mmHg 92%
    22:00 +12°C° 0 mm 1 m/S 756 mmHg 94%
    23:00 +12°C° 0 mm 1 m/S 756 mmHg 95%

    30 April, Sonntag

    Zeit Temperatur Niederschläge Wind Luftdruck Luftfeuchtigkeit
    00:00 +11°C° 0 mm 1 m/S 756 mmHg 96%
    01:00 +10°C° 0 mm 1 m/S 755 mmHg 97%
    02:00 +10°C° 0 mm 1 m/S 755 mmHg 98%
    03:00 +10°C° 0 mm 1 m/S 755 mmHg 98%
    04:00 +9°C° 0 mm 1 m/S 755 mmHg 98%
    05:00 +9°C° 0 mm 1 m/S 755 mmHg 98%
    06:00 +9°C° 0 mm 1 m/S 756 mmHg 98%
    07:00 +8°C° 0 mm 1 m/S 756 mmHg 99%
    08:00 +10°C° 0 mm 0 m/S 756 mmHg 87%
    09:00 +12°C° 0 mm 0 m/S 756 mmHg 76%
    10:00 +15°C° 0 mm 0 m/S 756 mmHg 65%
    11:00 +16°C° 0 mm 0 m/S 755 mmHg 59%
    12:00 +17°C° 0 mm 0 m/S 754 mmHg 53%
    13:00 +21°C° 0 mm 1 m/S 754 mmHg 47%
    14:00 +21°C° 0 mm 1 m/S 753 mmHg 47%
    15:00 +18°C° 0 mm 0 m/S 753 mmHg 48%
    16:00 +18°C° 0 mm 0 m/S 753 mmHg 48%
    17:00 +15°C° 0 mm 0 m/S 753 mmHg 59%
    18:00 +13°C° 0 mm 0 m/S 753 mmHg 70%
    19:00 +10°C° 0 mm 0 m/S 753 mmHg 81%
    20:00 +9°C° 0 mm 0 m/S 753 mmHg 83%
    21:00 +9°C° 0 mm 0 m/S 753 mmHg 84%
    22:00 +9°C° 0 mm 0 m/S 753 mmHg 86%
    23:00 +8°C° 0 mm 0 m/S 753 mmHg 88%

    1 Mai, Montag

    Zeit Temperatur Niederschläge Wind Luftdruck Luftfeuchtigkeit
    00:00 +8°C° 0 mm 0 m/S 752 mmHg 90%
    01:00 +8°C° 0 mm 0 m/S 752 mmHg 92%
    02:00 +7°C° 0 mm 0 m/S 751 mmHg 93%
    03:00 +7°C° 0 mm 0 m/S 751 mmHg 95%
    04:00 +7°C° 0 mm 0 m/S 751 mmHg 96%
    05:00 +7°C° 0 mm 0 m/S 751 mmHg 95%
    06:00 +7°C° 0 mm 0 m/S 751 mmHg 94%
    07:00 +9°C° 0 mm 1 m/S 751 mmHg 93%
    08:00 +11°C° 0 mm 1 m/S 751 mmHg 83%
    09:00 +13°C° 0 mm 1 m/S 751 mmHg 72%
    10:00 +16°C° 0 mm 1 m/S 751 mmHg 62%
    11:00 +16°C° 0 mm 1 m/S 750 mmHg 60%
    12:00 +18°C° 0 mm 1 m/S 750 mmHg 58%
    13:00 +19°C° 0 mm 1 m/S 749 mmHg 56%
    14:00 +19°C° 0 mm 1 m/S 749 mmHg 59%
    15:00 +18°C° 0 mm 1 m/S 748 mmHg 61%
    16:00 +18°C° 0 mm 1 m/S 748 mmHg 64%
    17:00 +16°C° 0 mm 1 m/S 748 mmHg 71%
    18:00 +14°C° 0 mm 1 m/S 748 mmHg 78%
    19:00 +12°C° 0 mm 1 m/S 748 mmHg 84%
    20:00 +12°C° 0 mm 1 m/S 748 mmHg 85%
    21:00 +12°C° 0 mm 1 m/S 748 mmHg 85%
    22:00 +12°C° 0 mm 1 m/S 748 mmHg 85%
    23:00 +12°C° 0,3 mm 1 m/S 748 mmHg 87%

    2 Mai, Dienstag

    Zeit Temperatur Niederschläge Wind Luftdruck Luftfeuchtigkeit
    00:00 +13°C° 0,3 mm 1 m/S 748 mmHg 89%
    01:00 +13°C° 0,3 mm 1 m/S 748 mmHg 91%
    02:00 +12°C° 0,1 mm 1 m/S 748 mmHg 92%
    03:00 +12°C° 0,1 mm 1 m/S 748 mmHg 94%
    04:00 +11°C° 0,1 mm 1 m/S 748 mmHg 95%
    05:00 +11°C° 0 mm 1 m/S 748 mmHg 95%
    06:00 +10°C° 0 mm 1 m/S 749 mmHg 95%
    07:00 +10°C° 0 mm 1 m/S 749 mmHg 95%
    08:00 +10°C° 0 mm 2 m/S 749 mmHg 89%
    09:00 +12°C° 0 mm 2 m/S 750 mmHg 83%
    10:00 +12°C° 0 mm 2 m/S 750 mmHg 77%
    11:00 +13°C° 0 mm 2 m/S 750 mmHg 70%
    12:00 +14°C° 0 mm 2 m/S 750 mmHg 62%
    13:00 +14°C° 0 mm 3 m/S 750 mmHg 54%
    14:00 +14°C° 0 mm 3 m/S 750 mmHg 54%
    15:00 +14°C° 0 mm 3 m/S 750 mmHg 55%
    16:00 +13°C° 0 mm 3 m/S 750 mmHg 55%
    17:00 +13°C° 0 mm 2 m/S 750 mmHg 61%
    18:00 +10°C° 0 mm 2 m/S 751 mmHg 68%
    19:00 +9°C° 0 mm 1 m/S 752 mmHg 74%
    20:00 +9°C° 0 mm 1 m/S 752 mmHg 77%
    21:00 +8°C° 0 mm 1 m/S 752 mmHg 80%
    22:00 +8°C° 0 mm 1 m/S 753 mmHg 82%
    23:00 +7°C° 0 mm 1 m/S 753 mmHg 84%
    Mehr zeigen